This is the latest recevied weather packets stored in our database for station/object KD4MBW. If no packets are shown the sender has not sent any weather packets the latest 10 day(s).
| Time | Temp. | Humidity | Pressure | Rain* | Wind** | Luminosity | Snow |
|---|---|---|---|---|---|---|---|
| 1787582317 | 31.67° C | 85% | 1016.8 hPa | 0 mm | - | 505 W/m² | - |
| 1787582016 | 31.11° C | 85% | 1016.4 hPa | 0 mm | - | 483 W/m² | - |
| 1787581711 | 31.11° C | 86% | 1016.4 hPa | 0 mm | - | 464 W/m² | - |
| 1787581406 | 31.11° C | 87% | 1016.7 hPa | 0 mm | - | 450 W/m² | - |
| 1787581101 | 30.56° C | 88% | 1016.5 hPa | 0 mm | - | 435 W/m² | - |
| 1787580797 | 30.56° C | 90% | 1016.5 hPa | 0 mm | - | 420 W/m² | - |
| 1787580493 | 30.56° C | 91% | 1016.6 hPa | 0 mm | - | 411 W/m² | - |
| 1787580192 | 30.56° C | 91% | 1016.5 hPa | 0 mm | - | 261 W/m² | - |
| 1787579888 | 30.56° C | 91% | 1016.7 hPa | 0 mm | - | 334 W/m² | - |
| 1787579582 | 30.56° C | 91% | 1016.6 hPa | 0 mm | - | 207 W/m² | - |
| 1787579278 | 30° C | 92% | 1016.5 hPa | 0 mm | - | 367 W/m² | - |
| 1787578973 | 30.56° C | 91% | 1016.5 hPa | 0 mm | - | 347 W/m² | - |
| 1787578669 | 30° C | 93% | 1016.6 hPa | 0 mm | - | 389 W/m² | - |
| 1787578363 | 29.44° C | 93% | 1016.8 hPa | 0 mm | - | 321 W/m² | - |
| 1787578058 | 29.44° C | 94% | 1016.4 hPa | 0 mm | - | 274 W/m² | - |
| 1787577752 | 29.44° C | 94% | 1016.5 hPa | 0 mm | - | 258 W/m² | - |
| 1787577448 | 28.89° C | 94% | 1016.5 hPa | 0 mm | - | 248 W/m² | - |
| 1787577146 | 28.89° C | 95% | 1016.6 hPa | 0 mm | - | 153 W/m² | - |
| 1787576841 | 28.89° C | 95% | 1016.6 hPa | 0 mm | - | 172 W/m² | - |
| 1787576536 | 29.44° C | 94% | 1016.5 hPa | 0 mm | - | 113 W/m² | - |
| 1787576232 | 29.44° C | 93% | 1016.5 hPa | 0 mm | - | 148 W/m² | - |
| 1787575927 | 29.44° C | 95% | 1016.3 hPa | 0 mm | - | 196 W/m² | - |
| 1787575622 | 28.89° C | 98% | 1016.5 hPa | 0 mm | - | 183 W/m² | - |
| 1787575317 | 28.33° C | 99% | 1016.7 hPa | 0 mm | - | 155 W/m² | - |
| 1787575012 | 27.78° C | 99% | 1016.4 hPa | 0 mm | - | 134 W/m² | - |
* Rain latest hour (hover to see other rain measurements)
** Current wind speed in m/s (hover to see current wind gust speed)